Weather History for Berlin, NH

Change the Weather History Date:

Wednesday, April 3, 2013

  Actual Average Record
Temperature  
Mean Temperature 30 °F -  
Max Temperature 37 °F 40 °F 55 °F (2006)
Min Temperature 23 °F 20 °F 15 °F (1997)
Degree Days  
Heating Degree Days 35    
Moisture  
Dew Point 13 °F    
Average Humidity 56    
Maximum Humidity 75    
Minimum Humidity 33    
Precipitation  
Precipitation 0.00 in - - ()
Sea Level Pressure  
Sea Level Pressure 29.88 in    
Wind  
Wind Speed 8 mph (WNW)    
Max Wind Speed 14 mph    
Max Gust Speed 29 mph    
Visibility 9 miles    
Events Snow    
Averages and records for this station are not official NWS values.
T = Trace of Precipitation, MM = Missing Value Source: NWS Daily Summary

Daily Weather History Graph

Daily Weather History Graph

Search for Another Location

Airport:

Trip Planner

Search our weather history database for the weather conditions in past years. The results will help you decide how hot, cold, wet, or windy it might be!

Date:

Astronomy

Apr. 03, 2013 Rise Set
Actual Time 6:21 AM EDT 7:14 PM EDT
Civil Twilight 5:52 AM EDT 7:44 PM EDT
Nautical Twilight 5:16 AM EDT 8:19 PM EDT
Astronomical Twilight 4:40 AM EDT 8:56 PM EDT
Moon 2:15 AM EDT (4/3) 12:08 PM EDT (4/3)
Length of Visible Light 13h 52m
Length of Day
12h 53m
Last Quarter, 45% of the Moon is Illuminated
Apr 3
Last Quarter
Apr 10
New
Apr 18
First Quarter
Apr 25
Full
May 2
Last Quarter

Hourly Weather History & Observations

Time (EDT) Temp. Windchill Dew Point Humidity Pressure Visibility Wind Dir Wind Speed Gust Speed Precip Events Conditions
12:52 AM 24.1 °F 15.2 °F 16.0 °F 71% 29.80 in 4.0 mi West 8.1 mph - 0.00 in Snow Light Snow
1:08 AM 24.8 °F 16.9 °F 15.8 °F 69% 29.75 in 7.0 mi Variable 6.9 mph - 0.00 in Snow Light Snow
1:52 AM 23.0 °F 13.9 °F 15.1 °F 72% 29.80 in 7.0 mi WNW 8.1 mph 18.4 mph 0.00 in   Overcast
2:05 AM 23.0 °F 15.8 °F 14.0 °F 68% 29.75 in 8.0 mi Variable 5.8 mph 20.7 mph 0.00 in   Overcast
2:12 AM 23.0 °F 14.7 °F 15.8 °F 74% 29.75 in 5.0 mi Variable 6.9 mph - 0.00 in Snow Light Snow
2:47 AM 23.0 °F - 14.0 °F 68% 29.74 in 10.0 mi Calm Calm - 0.00 in   Overcast
2:52 AM 23.0 °F 17.0 °F 12.9 °F 65% 29.80 in 10.0 mi Variable 4.6 mph - 0.00 in   Overcast
3:52 AM 24.1 °F 18.2 °F 10.0 °F 55% 29.79 in 10.0 mi Variable 4.6 mph - N/A   Overcast
4:52 AM 24.1 °F 16.0 °F 9.0 °F 53% 29.80 in 10.0 mi Variable 6.9 mph - N/A   Overcast
5:52 AM 23.0 °F 13.9 °F 12.0 °F 63% 29.81 in 10.0 mi West 8.1 mph 21.9 mph 0.00 in Snow Light Snow
6:52 AM 24.1 °F 16.0 °F 12.0 °F 60% 29.82 in 10.0 mi Variable 6.9 mph - 0.00 in   Overcast
7:52 AM 25.0 °F 17.1 °F 8.1 °F 49% 29.84 in 10.0 mi Variable 6.9 mph 16.1 mph N/A   Overcast
8:52 AM 26.1 °F 15.6 °F 6.1 °F 43% 29.84 in 10.0 mi NW 11.5 mph 24.2 mph N/A   Partly Cloudy
9:52 AM 27.0 °F 16.1 °F 7.0 °F 43% 29.85 in 10.0 mi West 12.7 mph 25.3 mph N/A   Partly Cloudy
10:52 AM 28.9 °F 19.2 °F 9.0 °F 43% 29.85 in 10.0 mi West 11.5 mph 28.8 mph N/A   Overcast
11:52 AM 30.0 °F 22.4 °F 10.0 °F 43% 29.85 in 10.0 mi WNW 8.1 mph 25.3 mph N/A   Overcast
12:52 PM 30.9 °F 20.7 °F 10.0 °F 42% 29.85 in 10.0 mi West 13.8 mph 23.0 mph N/A   Mostly Cloudy
1:52 PM 34.0 °F 26.0 °F 9.0 °F 35% 29.85 in 10.0 mi West 10.4 mph 28.8 mph N/A   Scattered Clouds
2:52 PM 37.0 °F 29.8 °F 10.0 °F 33% 29.87 in 10.0 mi NW 10.4 mph 26.5 mph N/A   Overcast
3:52 PM 34.0 °F 25.0 °F 12.0 °F 40% 29.89 in 10.0 mi NNW 12.7 mph 20.7 mph N/A   Overcast
4:52 PM 34.0 °F 29.8 °F 15.1 °F 46% 29.92 in 10.0 mi Variable 4.6 mph 21.9 mph N/A   Overcast
5:52 PM 32.0 °F 22.1 °F 15.1 °F 50% 29.95 in 10.0 mi NW 13.8 mph 21.9 mph N/A   Overcast
6:52 PM 30.0 °F 23.2 °F 16.0 °F 56% 29.99 in 10.0 mi NW 6.9 mph 20.7 mph N/A   Overcast
7:32 PM 28.4 °F 23.3 °F 19.4 °F 69% 29.96 in 5.0 mi NNW 4.6 mph - 0.00 in Snow Light Snow
7:52 PM 28.0 °F - 21.0 °F 75% 30.02 in 4.0 mi Calm Calm - 0.00 in Snow Light Snow
8:52 PM 28.9 °F 21.1 °F 18.0 °F 64% 30.04 in 10.0 mi WNW 8.1 mph 19.6 mph 0.00 in   Overcast
9:03 PM 28.4 °F 18.5 °F 17.6 °F 64% 30.00 in 10.0 mi WNW 11.5 mph 19.6 mph N/A   Overcast
9:52 PM 28.9 °F 21.9 °F 17.1 °F 61% 30.06 in 9.0 mi Variable 6.9 mph 21.9 mph 0.00 in Snow Light Snow
10:52 PM 28.9 °F 21.1 °F 16.0 °F 58% 30.07 in 10.0 mi WNW 8.1 mph 19.6 mph 0.00 in   Overcast
11:52 PM 30.0 °F 24.1 °F 15.1 °F 54% 30.09 in 10.0 mi Variable 5.8 mph - N/A   Overcast